Simultaneous Nadir Overpasses (SNOs) Predictions

Prediction of SNOs between GOES-17 and NOAA-20 Satellite Orbit:

Table of predicted SNOs for the next 14.0 days since TLE Epoch: 6/22/2024
Index Date Time (GOES-17) GOES-17 Lat,Lon NOAA-20 Lat,Lon Distance(km) Time Diff (sec)
1 06/22/2024 20:10:34 0.01,-104.71 0.79,-101.26 393.06 80
2 06/24/2024 08:32:17 -0.01,-104.70 0.39,-106.51 206.68 80
3 06/25/2024 08:10:50 -0.02,-104.70 -0.63,-101.98 310.56 80
4 06/26/2024 20:32:41 0.02,-104.70 -0.58,-107.26 292.28 80
5 06/27/2024 20:16:33 0.02,-104.70 0.45,-102.72 225.40 80
6 06/29/2024 08:38:17 -0.02,-104.70 0.72,-107.98 373.49 80
7 06/30/2024 08:16:49 -0.02,-104.70 -0.31,-103.44 144.02 80
8 07/01/2024 20:38:41 0.03,-104.70 -0.90,-108.72 459.10 80
9 07/02/2024 20:22:33 0.03,-104.70 0.13,-104.18 58.41 80
10 07/05/2024 08:25:29 -0.03,-104.70 -0.01,-104.90 23.28 80
